Regional Weather Roundup
Issued by NWS

Home | Current Version | Previous Version | Text Only | Print | Product List | Glossary On
Versions: 1 2 3 4 5 6 7 8 9 10 11 12 13 14 15 16 17 18 19 20 21 22 23 24 25 26 27 28 29 30 31 32 33 34 35 36 37 38 39 40 41 42 43 44 45 46 47 48 49 50
952
ASUS45 KTFX 211710
RWRMT
MONTANA REGIONAL WEATHER ROUNDUP
NATIONAL WEATHER SERVICE GREAT FALLS MT
1100 AM MDT FRI JUL 21 2017

NOTE: "FAIR" INDICATES FEW OR NO CLOUDS BELOW 12000 FEET WITH NO
SIGNIFICANT WEATHER AND/OR OBSTRUCTIONS TO VISIBILITY.

MTZ001>007-043-211800-
WEST OF THE DIVIDE

CITY           SKY/WX    TMP DP  RH WIND       PRES   REMARKS
KALISPELL      MOSUNNY   73  40  30 SW9       30.08S HAZE
MISSOULA       SUNNY     72  37  28 CALM      30.11F
BUTTE          SUNNY     69  38  32 NE5       30.19F
MULLAN PASS    SUNNY     56  37  49 VRB3      30.23R
ANACONDA         N/A     70  43  37 CALM      30.15F
EUREKA           N/A     72  39  30 MISG      30.06S
HAMILTON         N/A     72  45  37 CALM      30.12F
LIBBY            N/A     72  37  28 S3        30.07S
PLAINS           N/A     73  40  30 S1        30.10F
$$

MTZ008-052>055-211800-
SOUTHWEST MONTANA

CITY           SKY/WX    TMP DP  RH WIND       PRES   REMARKS
DILLON         SUNNY     73  42  32 SW7       30.16F
W YELLOWSTONE  SUNNY     70  30  23 SW6G14    30.26S
ENNIS          SUNNY     75  32  20 VRB5      30.22S
THREE FORKS      N/A     75  39  27 CALM      30.10F
TWIN BRIDGES     N/A     71  44  37 N1        30.13F
$$

MTZ009-010-012-014-046-048-049-054-211800-
EAST SLOPES AND CENTRAL MONTANA

CITY           SKY/WX    TMP DP  RH WIND       PRES   REMARKS
CUT BANK       SUNNY     72  31  22 SW21G26   30.02S
GREAT FALLS    SUNNY     78  19  11 SW23G29   30.01F
MALMSTROM AFB  SUNNY     77  23  13 SW21G26   30.02F
HELENA         SUNNY     77  34  21 NW14      30.09F
CHOTEAU          N/A     75  23  14 CALM      30.05S
$$

MTZ011-013-016-021-045-047-050-051-211800-
NORTH CENTRAL MONTANA

CITY           SKY/WX    TMP DP  RH WIND       PRES   REMARKS
HAVRE          SUNNY     79  37  22 W14       29.95S
LEWISTOWN      SUNNY     74  30  19 VRB7      30.06S
N BAR RANCH      N/A     77  27  15 W9G16     30.08S
CHINOOK          N/A     77  39  25 W10G18    29.94S
WINIFRED         N/A     74  34  23 W12G17    30.02S
$$

MTZ017>020-022>027-061-062-211800-
NORTHEAST MONTANA

CITY           SKY/WX    TMP DP  RH WIND       PRES   REMARKS
GLASGOW        SUNNY     82  44  26 NW16G23   29.88R
JORDAN           N/A     84  33  16 NW18G28   29.93
SIDNEY         SUNNY     84  59  42 SW14      29.82S
WOLF POINT     SUNNY     81  59  47 SW9       29.85S
MALTA          SUNNY     79  48  34 W13G22    29.91S
PLENTYWOOD       N/A     79  57  47 W16G22    29.84S
POPLAR           N/A     79  61  53 W10G17    29.85S
$$

MTZ028>42-056>058-211800-
SOUTHCENTRAL AND SOUTHEAST MONTANA

CITY           SKY/WX    TMP DP  RH WIND       PRES   REMARKS
BAKER          SUNNY     85  56  37 NW14G21   29.89R
BILLINGS       SUNNY     84  33  16 NW17G24   30.04F
LIVINGSTON     SUNNY     80  39  23 W9        30.11F
MILES CITY     SUNNY     88  33  14 NW20G26   29.94R
BIG TIMBER     SUNNY     79  36  21 W18G25    30.11S
EKALAKA          N/A     82  50  32 W17       29.93R
FORSYTH          N/A     82  36  18 NW10      29.96S
LAUREL           N/A     83  36  18 W8        30.03F
$$

REGIONAL REPORTS...DAKOTAS

CITY           SKY/WX    TMP DP  RH WIND       PRES   REMARKS
WILLISTON      MOSUNNY   82  60  47 SW7       29.81R
MINOT          TSTM      71  64  78 SE6       29.78R
DICKINSON      SUNNY     82  64  54 VRB5      29.83S
BEACH            N/A     82  57  42 NW12      29.90R
CROSBY           N/A     70  64  83 CALM      29.82F
TIOGA            N/A     79  59  50 E9        29.82F
WATFORD CITY     N/A     84  59  42 SE10      29.79F
BISMARCK       MOSUNNY   82  65  56 CALM      29.84F
GRAND FORKS    PTSUNNY   83  73  72 S7        29.78S
FARGO          CLOUDY    85  72  65 W6        29.77F HX  91
BUFFALO SD       N/A     82  62  50 NW15      29.83R
RAPID CITY     MOSUNNY   86  58  38 NW14      29.91R
$$

REGIONAL REPORTS...WYOMING/IDAHO/WASHINGTON

CITY           SKY/WX    TMP DP  RH WIND       PRES   REMARKS
GILLETTE       CLOUDY    82  39  21 NW13G22   30.05R
SHERIDAN       SUNNY     83  36  18 NW10      30.06S
BUFFALO WY     CLOUDY    78  40  25 N23       30.11S
CODY           SUNNY     74  39  28 N8        30.15S
YELLOWSTONE LA   N/A     64  46  52 VRB6      30.34F
IDAHO FALLS    SUNNY     73  48  41 W6        30.17S
BOISE          SUNNY     75  45  34 NW7       30.09S
SPOKANE        MOSUNNY   65  43  44 S12       30.13S
$$

REGIONAL REPORTS...ALBERTA

CITY           SKY/WX    TMP DP  RH WIND       PRES   REMARKS
EDMONTON       CLOUDY    55  54  94 SW6       29.80S
CALGARY        PTSUNNY   68  36  30 NW12G21   29.93S
LETHBRIDGE     MOSUNNY   73  37  27 W17G29    29.95S
MEDICINE HAT   MOSUNNY   73  46  38 W12G18    29.91F
WATERTON GATE    N/A     66  37  34 SW16G28     N/A
ONEFOUR          N/A     73  36  25 W20G30      N/A
$$

REGIONAL REPORTS...SASKATCHEWAN

CITY           SKY/WX    TMP DP  RH WIND       PRES   REMARKS
SWIFT CURRENT  SUNNY     68  54  60 W22G31    29.87R
REGINA         PTSUNNY   75  55  50 SW6       29.81S
SASKATOON      CLOUDY    63  59  88 NE15      29.85F
CYPRESS HILLS    N/A     66  37  34 W12G17      N/A
VAL MARIE        N/A     79  45  29 NW17G24     N/A
ROCKGLEN         N/A     77  52  41 W12G21      N/A
ASSINIBOIA       N/A     61  54  77 W13         N/A
$$




USA.gov is the U.S. government's official web portal to all federal, state and local government web resources and services.